FENGYUN 1C DEB

Satellite information

Favourite Embed

Satellite Type and Status

DEBRISIN ORBIT

Key statistics

Satellite FENGYUN 1C DEB at a glance.

Uptime

9616

Days in orbit

Revolutions

≈ 14.5

Per day

Orbit

SSO

Sun Synchronous Orbit

Inclination

99.5

Latest

Satellite identification and parameters

Extended collection of information and parameters for FENGYUN 1C DEB.

Object identification

Identified? True

Debris? True

Object name: FENGYUN 1C DEB

International designator: 1999-025CXH

Object number (NORAD): 32316

Object ID (CCSDS): 32316

Country: PEOPLES REPUBLIC OF CHINA (PRC)

Current information (Y/N): Y

RCS size: SMALL

Orbital parameters

Period: 99.265 minutes

Inclination: 99.5381 deg

SMA: 7101.627 km

Apoapsis: 742.526 km

Periapsis: 704.458 km

RAAN: 261.3844 deg

Eccentricy: 0.00268028

Argument of periapsis: 260.436 deg

Mean anomaly: 154.5941 deg

Mean motion: 14.50661121 rev/day

Mean motion (dot): 0.00004359 rev/day2

B* drag term: 0.0011186426 1/REarth

Two-line elements (TLE)

Creation date: Sept. 5, 2025, 10:27 a.m.

Reference frame: TEME

Reference center: EARTH

Epoch: Sept. 5, 2025, 12:01 a.m. UTC

TLE line 0: 0 FENGYUN 1C DEB

TLE line 1: 1 32316U 99025CXH 25248.00103428 .00004359 00000-0 11186-2 0 9999

TLE line 2: 2 32316 99.5381 261.3844 0026803 260.4360 154.5941 14.50661121943451

Live tracking on map

Real-time ground track for satellite FENGYUN 1C DEB.

In-orbit conjunctions

A list of the most updated potential collisions computed for object FENGYUN 1C DEB.

Target Orbit TCA Probability of collision Miss distance Type
COSMOS 2251 DEB LEO 2025-09-07 18:20:20 0.0001095493 153.0 (m) DEBRIS
COSMOS 2251 DEB LEO 2024-11-08 20:58:23 0.0001296957 653.0 (m) DEBRIS

Associated space launch

Chinese polar orbiting meteorological satellite

FENGYUN 1C DEB was lifted into orbit during the mission ‘Long March 4B | Feng Yun 1C’, on board a Long March 4B space rocket.

The launch took place on May 10, 1999, 1:33 a.m. from Launch Complex 7.

For more information about the launch, click the button.

Launch to space Long March 4B | Feng Yun 1C
Long March 4B | Feng Yun 1C

Agency: N/A

Status: Launch Successful

Launch date: May 10, 1999, 1:33 a.m. UTC

Rocket: Long March 4B

Launch pad: Launch Complex 7

Location: Taiyuan Satellite Launch Center, People's Republic of China

...

Latest news about this satellite

There are no fresh news available about this satellite. Check back as we update our databases every day.


Newsletter sign-up

Weekly statistics, charts and insights to help you stay on top of the space industry.